This is the latest recevied weather packets stored in our database for station/object W0WFX-2. If no packets are shown the sender has not sent any weather packets the latest 10 day(s).
| Time | Temp. | Humidity | Pressure | Rain* | Wind** | Luminosity | Snow |
|---|---|---|---|---|---|---|---|
| 1788535654 | 32.22° C | 55% | 1015 hPa | 0 mm | - | 501 W/m² | - |
| 1788535354 | 31.67° C | 56% | 1014.9 hPa | 0 mm | - | 489 W/m² | - |
| 1788535049 | 31.67° C | 57% | 1015 hPa | 0 mm | - | 469 W/m² | - |
| 1788534748 | 31.67° C | 57% | 1014.9 hPa | 0 mm | - | 477 W/m² | - |
| 1788534444 | 31.67° C | 56% | 1015.1 hPa | 0 mm | - | 443 W/m² | - |
| 1788534139 | 31.11° C | 58% | 1015.1 hPa | 0 mm | - | 426 W/m² | - |
| 1788533837 | 30.56° C | 59% | 1015 hPa | 0 mm | - | 412 W/m² | - |
| 1788533533 | 30° C | 61% | 1015 hPa | 0 mm | - | 321 W/m² | - |
| 1788533228 | 29.44° C | 62% | 1015 hPa | 0 mm | - | 379 W/m² | - |
| 1788532924 | 28.89° C | 63% | 1015 hPa | 0 mm | - | 366 W/m² | - |
| 1788532619 | 28.89° C | 64% | 1014.9 hPa | 0 mm | - | 211 W/m² | - |
| 1788532316 | 28.89° C | 64% | 1015.1 hPa | 0 mm | - | 101 W/m² | - |
| 1788532012 | 28.89° C | 65% | 1015 hPa | 0 mm | - | 73 W/m² | - |
| 1788531708 | 28.33° C | 66% | 1015.1 hPa | 0 mm | - | 58 W/m² | - |
| 1788531402 | 28.33° C | 66% | 1015 hPa | 0 mm | - | 56 W/m² | - |
| 1788531098 | 27.78° C | 67% | 1014.9 hPa | 0 mm | - | 53 W/m² | - |
| 1788530794 | 27.78° C | 69% | 1014.8 hPa | 0 mm | - | 54 W/m² | - |
| 1788530494 | 27.22° C | 70% | 1014.7 hPa | 0 mm | - | 61 W/m² | - |
| 1788530192 | 27.22° C | 70% | 1014.8 hPa | 0 mm | - | 72 W/m² | - |
| 1788529889 | 26.67° C | 71% | 1014.8 hPa | 0 mm | - | 47 W/m² | - |
| 1788529584 | 26.67° C | 72% | 1014.8 hPa | 0 mm | - | 46 W/m² | - |
| 1788529283 | 26.67° C | 73% | 1014.8 hPa | 0 mm | - | 47 W/m² | - |
| 1788528984 | 26.11° C | 73% | 1014.7 hPa | 0 mm | - | 44 W/m² | - |
| 1788528680 | 26.11° C | 74% | 1014.8 hPa | 0 mm | - | 42 W/m² | - |
| 1788528374 | 25.56° C | 75% | 1014.9 hPa | 0 mm | - | 42 W/m² | - |
* Rain latest hour (hover to see other rain measurements)
** Current wind speed in m/s (hover to see current wind gust speed)